Theta_e
286 286 286 286 286 287 287 287 287 288 288 289 289 289 289 290 291 290 292 294 295 296 296 297 298 299 298 298 298 299 298 298 298 298 297 297 298 299 300 301 302 303 304 305 305 305 306 306 306 306 307 306 306 305 304 304 303 302 301 299 300 299 297 292 292 293 292 293 290 288 288 287 289 288 288 288 288 288 287 287 288 289 289 289 291
286 285 286 285 286 286 286 286 287 286 286 287 287 288 289 289 289 290 291 292 293 294 295 295 295 295 296 296 295 295 295 294 294 295 295 295 294 295 296 296 296 297 299 301 301 303 303 304 304 304 304 305 304 303 303 300 301 300 300 299 297 298 298 293 294 294 292 291 291 289 288 289 286 287 287 288 288 287 287 288 288 288 289 289 287
284 284 284 285 285 285 285 285 285 285 285 286 286 287 287 288 288 289 289 290 291 293 294 294 294 295 295 293 294 292 294 293 292 293 293 292 292 292 293 293 293 293 294 296 297 298 299 301 301 302 302 302 303 303 303 302 301 299 299 300 298 295 294 293 293 294 294 288 289 290 288 285 290 285 285 286 288 288 286 287 288 287 288 287 287
283 283 283 283 284 284 284 284 284 284 285 285 285 286 286 287 287 288 288 289 290 291 292 292 294 293 294 293 293 292 291 292 291 291 291 290 289 290 290 290 291 291 292 293 293 294 295 296 298 298 299 300 301 300 300 300 300 300 300 299 299 297 296 294 294 293 292 294 293 289 287 284 288 290 282 285 283 285 286 286 286 288 288 286 286
282 283 283 283 283 283 283 283 284 284 284 283 284 284 285 285 286 287 287 288 288 290 290 291 292 292 292 292 291 290 290 289 289 288 288 289 288 288 288 289 289 289 289 290 291 291 292 293 294 294 295 296 297 297 296 297 297 298 298 297 297 298 297 295 293 293 293 293 294 289 290 288 287 286 286 291 282 286 285 285 286 286 286 286 286
282 282 282 282 282 282 283 283 283 283 283 283 283 284 284 285 285 286 286 287 287 288 289 290 289 289 289 288 287 286 285 285 285 285 286 286 286 287 287 287 287 287 288 288 288 289 289 290 291 291 292 293 294 294 294 294 294 294 295 295 294 294 294 293 294 294 292 293 292 292 295 292 288 288 288 288 286 285 284 283 284 285 284 286 286
282 282 282 282 282 282 282 282 282 282 282 282 283 283 283 284 284 285 285 286 287 287 288 289 288 287 287 286 286 285 284 284 285 285 285 285 286 285 285 286 286 286 286 287 287 288 288 288 289 289 290 290 291 291 291 291 292 292 293 293 293 294 294 293 293 293 291 291 292 292 290 288 288 287 286 287 286 288 284 284 287 284 284 284 286
281 281 281 281 281 281 281 281 281 282 281 282 283 283 283 283 283 283 284 285 285 286 286 287 287 286 286 286 286 284 284 283 284 284 284 284 284 283 284 284 284 284 284 285 286 286 287 287 287 287 288 288 289 289 289 290 291 292 292 292 292 293 292 291 291 292 291 292 292 291 291 290 289 288 288 286 285 283 287 286 285 285 284 284 286
281 281 281 281 281 280 281 281 281 281 281 282 282 282 282 282 283 283 283 283 283 284 285 285 286 285 285 284 284 284 284 283 283 284 283 283 282 283 283 283 283 284 284 284 284 284 285 285 285 286 286 287 287 287 288 289 289 289 290 290 291 291 291 291 291 291 292 291 291 291 291 291 290 289 288 286 285 285 286 287 288 286 285 285 285
281 281 281 281 280 280 280 280 280 280 281 282 281 281 281 282 282 282 282 282 282 282 283 283 283 284 283 282 282 281 282 282 282 281 281 281 281 281 282 282 282 283 283 283 283 284 284 284 284 284 284 285 286 286 286 287 288 288 289 289 289 289 290 290 290 290 291 291 291 291 290 289 288 288 287 285 285 286 284 285 286 286 285 287 286
281 280 280 280 280 279 280 279 279 280 280 280 281 281 280 281 281 281 281 281 282 282 282 282 282 282 282 281 281 280 280 280 281 281 281 281 281 281 281 282 282 282 283 283 283 283 283 284 283 283 284 284 285 285 285 286 287 287 288 288 288 288 288 288 288 289 289 290 289 289 289 290 289 287 287 288 287 285 285 286 287 288 287 287 286
280 280 280 279 280 279 279 279 279 279 280 280 280 280 281 280 281 280 280 280 281 281 281 281 281 281 281 281 281 280 280 281 280 280 280 280 280 280 281 282 282 283 283 283 283 284 284 283 283 283 283 284 284 285 285 285 286 286 287 287 287 287 287 287 287 287 287 288 288 289 289 289 289 289 289 289 288 287 287 286 286 287 287 287 287
280 280 280 280 279 279 279 279 279 279 279 279 280 280 280 280 280 280 279 279 280 280 280 280 280 280 280 280 281 281 280 280 280 280 280 280 280 280 280 280 281 281 282 282 282 283 283 283 283 283 283 283 284 284 284 285 285 286 286 285 286 286 286 286 286 286 286 286 287 288 288 288 288 289 289 288 287 287 286 284 286 286 285 286 286
279 279 279 279 279 279 279 279 279 279 279 279 279 280 279 280 279 280 279 279 279 279 279 280 280 280 279 280 280 280 280 280 280 279 280 280 280 280 280 281 281 282 282 282 282 283 283 283 283 283 283 283 283 283 283 283 284 284 285 285 285 286 285 285 285 285 286 286 286 285 286 287 287 288 287 287 285 285 283 283 284 284 284 285 287
279 279 279 279 279 279 279 279 279 279 279 279 279 279 279 279 279 279 279 279 278 278 279 279 279 279 279 279 280 280 280 280 280 280 279 279 279 279 280 280 280 280 281 282 282 282 283 283 283 282 283 282 282 282 283 282 283 283 283 283 283 285 284 284 284 285 285 285 285 285 285 286 286 287 286 286 287 285 284 283 283 281 282 284 285
279 279 279 279 279 279 279 279 279 279 279 278 279 278 279 279 278 279 279 278 279 279 278 278 278 279 278 279 279 280 281 279 279 280 279 278 278 278 278 278 279 279 279 280 280 280 280 280 281 281 282 282 282 282 282 282 282 281 281 281 281 284 282 282 283 284 284 284 285 285 285 285 286 286 286 286 286 286 285 284 283 281 280 280 284
279 279 279 279 279 279 279 279 279 279 278 279 279 278 278 279 279 279 278 278 279 278 278 278 278 279 278 278 278 278 278 278 278 278 278 278 278 278 278 278 278 279 279 280 278 278 278 278 278 279 279 280 281 281 281 281 281 281 280 280 280 281 281 281 281 282 282 283 284 284 284 285 285 285 285 285 285 284 285 284 284 283 283 280 280
279 279 279 279 279 280 279 279 278 278 278 278 279 278 278 279 278 279 279 279 279 279 279 279 279 279 279 279 279 279 278 278 278 278 278 278 278 278 278 278 278 279 279 280 278 278 278 279 278 278 278 278 278 279 279 280 280 280 280 280 280 280 280 280 280 280 280 281 282 282 283 283 284 284 285 285 285 285 284 284 284 284 283 281 280
279 279 279 279 279 280 279 279 279 278 279 278 279 279 279 279 279 279 279 279 279 280 279 279 279 280 280 279 279 279 279 278 277 277 278 278 278 278 278 278 278 279 279 279 278 278 279 278 278 278 278 278 278 278 278 278 278 277 278 278 279 279 278 278 279 280 280 280 280 280 281 281 282 282 283 284 284 284 284 284 283 284 283 283 282
280 280 279 280 280 280 279 279 279 279 279 279 278 278 278 279 279 279 279 279 279 279 279 279 278 279 279 278 278 277 278 278 278 278 278 278 278 278 278 278 278 278 278 278 277 277 278 278 278 278 278 278 278 278 278 277 277 277 277 277 278 278 277 277 278 279 279 279 279 279 279 280 281 281 281 281 282 283 284 284 283 283 283 283 282
280 280 280 280 280 280 279 279 280 279 280 280 280 279 280 279 279 279 279 277 278 278 278 278 278 277 277 277 277 277 277 277 277 277 277 277 278 278 277 277 277 277 277 277 277 277 277 277 277 277 277 277 277 277 277 277 276 276 277 277 277 277 276 276 277 277 278 278 278 278 278 279 279 279 279 280 281 282 282 283 283 283 282 282 281
281 280 279 280 280 280 280 280 280 280 281 281 282 282 281 279 278 277 277 277 277 277 277 277 277 277 277 277 276 276 276 276 276 276 276 277 277 277 277 277 277 277 277 277 277 277 277 277 276 276 276 276 276 276 276 276 276 276 276 277 277 276 276 276 276 276 276 277 277 277 277 278 278 278 278 278 279 280 280 281 281 281 281 281 282
281 280 280 280 280 280 281 282 282 282 282 282 281 280 279 279 279 277 277 277 277 277 277 277 277 277 276 275 275 275 275 275 275 276 276 276 276 276 277 276 276 276 277 276 276 276 276 276 276 276 275 275 276 275 276 276 275 275 275 275 276 275 275 275 275 275 275 276 276 276 276 277 278 277 277 277 278 278 279 279 280 280 280 281 281
280 281 280 280 280 280 280 281 281 281 280 280 279 279 279 278 277 277 277 277 277 277 277 277 277 276 275 275 275 275 275 275 275 275 275 275 276 276 276 276 276 276 275 276 276 275 275 275 275 275 275 275 275 275 275 275 275 275 275 275 275 275 275 275 275 275 275 275 275 275 276 276 276 276 277 277 277 277 277 278 278 279 279 280 280
280 281 281 281 281 280 281 280 280 280 279 278 279 279 278 277 277 277 277 277 277 277 276 276 276 275 275 275 275 275 275 275 275 275 275 275 275 275 275 274 275 274 274 274 274 274 274 274 274 273 273 273 274 274 274 274 274 274 274 274 274 275 275 275 275 275 277 275 275 275 276 276 276 276 276 276 277 277 277 277 277 278 278 278 279
281 280 280 280 281 280 280 279 279 279 279 279 279 278 277 277 277 277 277 277 277 276 276 276 275 275 275 274 275 275 275 275 275 275 274 274 274 274 273 273 273 273 273 273 272 272 272 272 272 272 272 272 272 272 272 273 273 273 274 274 274 274 274 275 275 275 276 276 276 276 276 276 276 276 276 276 277 276 277 277 277 277 278 278 278
280 280 280 279 279 279 279 279 279 279 278 278 278 277 276 277 276 276 276 276 276 275 276 275 275 274 274 274 274 274 274 274 274 274 274 273 272 272 272 271 272 271 271 271 271 271 271 271 271 271 271 271 271 271 271 271 272 272 272 273 273 274 274 275 275 275 275 276 276 276 276 276 276 276 276 276 276 277 277 277 277 277 278 277 277
278 278 278 279 280 279 279 279 278 278 277 277 276 277 277 277 276 276 275 275 276 275 275 275 274 274 274 274 274 274 274 274 273 273 272 271 271 270 270 270 269 269 269 269 269 269 269 270 270 269 269 270 269 269 270 270 271 271 272 272 273 273 273 273 274 274 274 275 275 275 276 276 276 276 276 276 277 277 277 277 278 278 278 277 277
278 278 279 279 279 279 279 279 278 277 277 276 276 275 275 275 275 274 275 274 274 275 274 274 274 274 273 273 273 273 272 272 271 270 270 269 269 268 268 268 268 268 268 268 268 268 268 267 268 268 268 268 268 268 269 269 270 271 272 272 272 272 272 272 272 273 273 274 274 274 275 275 276 278 279 280 280 280 279 278 278 279 278 278 277
278 279 279 279 279 279 279 278 277 277 277 276 276 275 275 275 275 274 274 274 274 274 273 273 273 272 272 272 271 270 270 270 269 268 267 267 266 266 266 266 266 266 266 266 266 266 266 265 265 266 266 266 266 267 269 272 274 272 272 272 272 272 272 272 271 271 271 272 272 273 274 276 276 277 277 278 279 280 280 279 278 278 278 278 278
279 279 279 279 278 278 278 277 277 277 277 277 277 276 275 274 274 274 274 273 273 272 272 271 272 271 270 270 269 268 268 267 267 266 264 264 265 264 263 264 263 264 264 264 264 264 264 264 264 264 264 265 265 266 270 272 274 275 273 272 271 271 271 271 271 271 271 271 272 272 273 274 275 275 275 277 278 278 279 279 280 280 280 278 277
279 279 278 278 278 277 277 277 277 277 277 277 276 275 274 274 273 273 273 272 271 271 271 270 270 269 269 268 267 266 265 265 264 263 263 262 261 261 261 262 261 262 263 262 263 263 263 263 263 263 263 263 263 266 270 272 273 274 274 272 272 271 271 271 270 270 270 270 270 270 271 271 270 271 271 271 273 275 277 277 278 279 279 280 281
279 279 278 278 278 278 278 278 277 276 277 277 276 275 274 274 273 273 271 270 270 270 269 268 268 267 267 266 265 263 263 262 262 261 261 260 260 261 260 260 260 261 261 261 262 262 262 262 262 262 262 262 262 266 269 271 273 274 274 273 271 271 270 270 269 269 268 268 268 268 268 269 269 272 271 270 270 271 274 276 277 277 277 278 279
278 278 279 279 278 277 277 277 276 276 276 276 275 275 274 273 272 270 269 269 269 268 267 267 266 266 265 265 264 262 262 261 261 260 260 259 259 259 260 260 260 260 260 260 260 261 261 261 261 261 261 261 261 265 270 271 272 273 274 274 271 270 269 268 268 268 268 268 268 268 268 268 269 270 270 270 270 271 271 271 272 272 272 274 276
278 277 277 277 277 277 276 275 275 275 274 274 273 273 272 271 270 269 268 268 267 267 266 266 265 265 264 262 263 262 260 261 260 259 258 258 259 259 259 260 259 260 260 259 259 259 259 260 260 260 260 260 261 267 269 271 271 273 274 273 270 268 267 267 268 268 268 268 268 268 268 268 268 269 270 271 270 271 271 271 272 272 273 273 273
278 278 278 277 277 277 277 276 275 274 273 273 273 272 270 269 268 268 267 267 266 265 265 264 264 263 262 263 261 260 259 259 260 258 258 259 259 258 258 259 258 259 258 259 259 259 259 259 259 259 259 259 260 266 268 270 271 272 273 270 268 267 267 267 267 267 268 268 268 268 268 268 268 268 271 273 273 271 271 270 270 271 271 272 273
278 278 278 278 278 277 277 275 274 273 273 272 271 270 269 267 266 265 265 265 265 263 264 264 262 262 262 262 262 260 259 258 258 258 257 257 259 258 258 257 257 258 258 258 258 258 258 258 258 258 258 258 259 263 268 269 271 272 271 268 268 267 266 266 266 267 268 268 268 268 268 268 268 268 271 274 274 274 271 271 271 271 272 272 272
276 275 275 276 276 276 275 275 273 272 271 270 269 268 267 266 265 265 264 264 263 263 263 262 262 261 262 261 261 259 258 257 256 256 256 258 257 257 256 257 257 257 257 257 258 257 258 258 258 257 258 258 259 262 267 269 270 271 271 268 267 266 266 266 266 267 267 268 268 270 270 269 268 269 273 275 276 274 271 271 271 270 269 269 270
275 275 276 276 276 276 274 273 272 270 269 268 267 266 266 265 265 264 263 263 263 263 262 261 262 262 261 260 259 258 258 257 256 257 256 256 256 256 257 256 257 256 257 257 257 257 257 257 257 258 260 260 259 261 265 267 269 271 270 268 268 267 266 266 266 266 267 268 268 269 271 272 271 272 275 276 276 275 272 271 271 270 270 269 271
275 274 275 275 275 272 271 271 271 271 268 266 265 266 265 265 264 264 263 262 263 262 262 262 261 261 259 258 258 258 257 256 257 256 255 256 256 255 255 256 256 256 256 256 256 256 256 256 257 257 258 258 258 259 261 267 269 270 272 269 268 267 265 266 266 267 266 267 268 268 270 273 274 275 275 276 276 276 273 273 272 271 270 270 272
275 275 277 274 274 274 273 273 272 269 266 265 265 265 265 263 263 263 262 263 262 262 261 261 261 259 258 258 257 256 255 255 255 255 256 255 255 256 256 255 255 255 255 255 255 255 256 256 257 258 258 258 258 259 260 267 269 270 272 271 268 267 267 267 267 267 267 267 268 269 269 273 275 276 276 276 276 276 277 274 273 272 272 273 275
274 274 274 273 272 272 270 269 267 266 265 264 265 265 263 263 262 262 262 262 261 261 260 258 258 258 257 256 255 254 255 254 254 253 253 254 254 254 255 254 255 255 254 254 255 255 255 256 256 257 257 257 259 262 261 265 269 271 272 273 269 269 270 269 269 269 269 269 269 270 270 272 275 276 276 276 277 277 277 273 273 276 278 278 275
273 273 272 273 271 271 270 268 266 264 264 264 263 263 262 261 262 262 261 261 261 260 259 258 257 256 255 254 253 253 254 253 253 254 253 253 254 253 253 254 254 254 254 254 254 255 255 255 256 256 257 258 258 259 264 264 269 271 272 273 273 272 274 271 270 269 269 269 270 270 271 274 275 276 276 277 277 278 277 275 278 278 278 278 276
273 273 273 271 272 270 268 265 264 263 263 264 263 262 261 261 262 262 261 259 259 257 256 256 255 254 253 253 252 252 253 252 252 252 251 252 253 252 253 253 254 253 253 253 254 254 254 254 254 256 257 258 259 260 263 267 268 271 273 273 274 274 275 272 271 271 271 271 270 270 271 275 276 276 277 277 277 276 275 277 277 277 277 276 273
274 273 271 270 271 269 267 263 263 262 262 261 261 262 260 260 261 261 260 258 256 255 254 252 251 250 251 251 250 251 251 251 251 252 252 253 253 251 253 253 253 253 253 253 254 253 253 254 255 256 258 259 260 262 263 266 270 271 272 273 273 274 275 275 272 271 271 271 273 276 277 277 277 277 277 277 275 274 276 276 276 276 275 272 271
270 269 269 269 267 265 264 263 262 261 261 261 261 261 261 259 260 260 258 257 255 253 252 252 251 251 252 250 250 252 251 252 252 252 253 253 253 253 253 253 253 253 253 253 253 253 253 255 256 258 260 261 263 264 265 265 267 268 270 272 273 274 274 274 274 273 274 276 276 276 277 276 275 274 272 271 271 272 275 276 276 275 270 268 268
272 272 268 266 265 265 264 263 263 262 261 261 260 260 260 260 259 258 257 254 252 253 254 254 254 253 251 250 250 251 252 253 251 252 252 253 253 252 252 253 253 253 252 252 253 254 255 256 257 259 261 263 263 264 265 266 267 267 267 268 270 270 273 274 272 271 272 271 272 273 272 274 274 275 275 274 273 273 270 269 268 267 267 267 267
271 268 267 266 266 267 265 264 264 263 262 261 260 260 259 259 259 258 255 254 255 255 255 255 254 251 251 251 251 254 255 253 252 251 252 253 252 252 252 253 253 253 253 253 254 255 257 258 259 260 260 262 265 266 266 266 267 268 270 271 271 271 271 271 271 271 272 272 272 273 272 270 269 268 268 267 266 266 266 266 266 266 266 267 268
269 266 266 268 267 267 266 265 266 264 262 261 260 260 258 258 259 256 255 256 256 256 255 253 251 251 250 252 252 252 252 252 252 252 252 253 253 253 254 254 256 256 256 255 256 257 259 260 260 261 263 265 265 265 266 270 271 273 271 271 271 270 270 270 271 273 271 270 270 268 267 265 264 263 263 263 263 263 264 265 265 265 265 266 266
268 266 266 266 266 267 266 265 264 262 261 260 259 258 257 258 257 256 256 256 256 255 252 251 251 251 250 250 252 251 250 252 251 252 252 253 257 261 260 259 259 263 267 268 267 262 264 266 267 267 267 265 265 266 271 273 273 274 274 274 273 273 273 271 271 272 269 266 264 262 262 261 261 261 261 262 263 263 264 264 264 266 266 265 266
265 264 263 265 265 264 263 262 262 260 260 259 258 256 255 256 257 257 256 256 256 254 253 252 252 251 252 251 251 252 252 251 252 252 252 252 253 255 261 264 265 265 267 268 269 270 271 271 269 266 268 270 271 272 272 272 273 273 273 272 272 272 271 270 271 266 262 260 259 259 259 260 261 262 262 262 262 262 262 262 263 264 264 265 266
Wind_Speed
4 4 6 8 10 9 7 7 7 8 10 11 12 12 11 10 11 13 9 10 10 9 9 8 8 7 10 11 10 9 9 10 12 10 12 11 12 12 12 11 11 12 12 11 11 9 9 8 8 7 7 7 6 6 4 4 3 3 3 4 3 4 2 4 4 1 3 5 3 4 5 4 6 4 6 6 6 6 4 5 6 5 6 5 5
6 8 9 8 9 9 7 7 9 12 11 10 11 10 9 10 11 10 9 10 10 8 6 9 6 5 8 8 9 8 9 10 9 11 11 10 12 12 11 11 12 12 10 10 10 10 10 10 10 10 8 7 6 4 5 4 5 6 4 3 3 2 1 2 1 3 3 3 6 7 5 6 3 2 5 7 5 4 4 4 5 5 6 6 3
5 5 6 7 8 8 7 8 8 7 7 10 8 10 11 11 10 9 9 9 9 8 8 7 6 7 7 5 7 8 7 7 8 8 9 10 12 12 11 11 11 10 10 10 10 10 10 9 8 7 8 7 7 7 7 7 6 7 5 3 3 1 0 1 2 4 1 2 1 3 4 7 5 4 2 4 6 7 4 5 4 4 7 4 2
6 6 7 7 7 6 7 9 8 7 8 9 10 10 9 10 10 10 10 9 9 9 7 5 6 5 7 8 9 10 7 5 8 10 11 13 14 11 11 11 12 12 12 11 10 10 10 10 8 8 9 8 8 9 10 10 9 7 3 2 1 2 2 2 1 2 2 4 5 1 2 2 8 2 4 7 3 4 2 5 3 6 6 4 1
4 5 6 6 7 8 8 7 5 8 9 9 9 9 7 9 9 9 9 9 8 8 8 5 6 6 5 6 6 6 9 10 12 12 10 9 10 12 11 10 11 11 10 11 10 10 9 9 8 8 8 8 7 8 8 7 8 7 6 5 5 2 5 3 2 0 1 2 1 2 4 1 2 4 8 8 2 1 2 3 4 4 5 4 3
2 3 4 4 4 5 7 7 8 8 9 8 6 7 7 8 8 9 9 9 9 9 8 9 10 9 10 12 12 11 12 12 11 9 10 10 9 5 11 11 10 11 10 11 11 10 10 10 9 10 10 9 9 8 7 8 10 9 8 6 6 4 2 3 3 0 2 2 4 3 3 4 5 5 7 8 2 2 5 3 4 4 4 4 5
3 3 4 5 6 7 7 7 6 7 6 4 5 6 7 7 7 9 9 8 8 8 8 8 12 11 12 11 9 9 10 7 4 5 6 6 7 10 9 10 11 12 11 11 11 10 10 10 10 10 9 9 8 9 9 8 7 6 6 8 6 5 4 5 5 5 1 1 3 3 3 3 3 3 5 7 13 2 1 5 6 3 4 4 5
2 3 3 3 5 5 5 4 5 5 4 4 6 6 8 7 8 9 8 9 8 7 10 8 11 10 11 11 10 10 10 7 5 6 6 6 10 10 9 9 10 11 11 11 11 10 10 10 10 10 10 9 8 8 8 7 7 7 6 5 6 7 6 5 3 4 4 4 2 2 2 3 4 4 4 6 7 11 11 2 3 6 3 4 5
1 3 3 3 4 4 3 4 3 4 4 5 5 5 5 6 7 8 10 9 8 8 9 9 9 9 9 9 11 7 7 6 5 6 7 7 11 9 10 9 10 11 11 11 11 10 10 9 9 9 9 9 7 8 7 7 8 8 9 9 8 6 6 5 4 5 5 3 5 3 3 2 2 4 4 3 4 7 12 7 8 3 4 4 6
1 2 2 2 2 2 2 1 3 4 4 4 4 4 5 5 8 11 10 8 6 8 9 9 8 8 11 10 11 7 6 6 6 8 7 6 9 8 7 8 8 9 10 10 11 11 11 10 10 10 9 7 7 7 7 8 8 8 7 6 7 7 6 6 5 5 5 5 4 3 3 3 3 2 1 1 3 6 10 11 9 10 11 4 3
1 1 1 1 1 1 2 3 3 4 3 4 5 5 4 7 7 12 7 7 7 8 8 10 8 8 9 9 9 9 6 6 9 9 7 8 9 8 7 7 7 7 7 8 9 8 9 9 9 9 8 8 9 9 9 7 7 6 6 6 7 7 6 6 6 5 4 5 5 5 5 4 3 3 5 4 4 5 7 10 10 8 10 13 4
0 1 1 1 3 3 2 4 3 3 3 5 5 4 6 6 7 11 8 7 7 6 8 8 8 9 8 8 10 8 8 9 10 9 8 9 8 8 6 7 8 7 8 8 9 9 8 8 7 7 8 8 9 7 8 7 7 7 7 6 6 5 5 5 4 6 6 5 5 5 4 4 4 4 4 4 5 6 6 10 9 10 11 7 4
1 1 0 1 2 2 3 3 3 3 4 4 5 4 5 6 6 11 8 6 6 5 8 7 8 8 7 8 8 8 9 9 9 9 6 8 7 8 9 8 7 9 9 9 9 9 7 8 8 8 7 7 6 7 7 8 7 7 7 7 7 7 6 5 5 4 2 3 3 4 3 4 4 5 5 4 5 5 5 8 7 6 12 12 4
3 2 2 1 1 1 1 2 2 2 4 4 4 4 4 5 5 9 6 5 4 6 6 8 8 7 6 7 7 7 8 8 7 7 6 6 6 7 7 7 7 8 8 8 7 7 7 6 6 7 6 5 5 5 5 5 6 6 6 7 7 6 6 5 5 4 3 3 1 2 2 3 4 4 4 5 5 5 5 5 8 6 7 12 8
3 3 3 3 2 2 2 2 2 3 3 4 4 4 4 5 5 7 7 4 5 5 5 7 7 6 6 6 7 6 8 8 7 6 6 6 5 6 5 5 6 5 5 5 6 7 7 8 8 8 8 7 7 7 7 6 6 5 5 5 5 5 7 6 6 5 6 6 4 3 4 3 3 3 3 4 4 4 5 5 5 10 9 7 10
4 4 3 3 3 3 2 2 2 3 3 3 4 4 5 4 4 5 5 4 4 5 5 5 5 5 6 7 7 6 6 6 6 5 5 4 4 5 4 4 4 3 3 3 4 4 4 5 6 7 7 8 8 8 8 7 7 6 6 6 7 4 6 6 6 6 6 6 5 4 3 5 4 3 3 4 4 4 5 4 5 5 6 13 9
5 5 4 4 3 3 3 3 3 2 3 4 4 3 4 5 5 5 4 4 4 4 4 4 5 6 6 6 6 6 6 6 6 4 4 3 3 3 4 3 2 2 3 2 3 3 3 4 4 4 5 5 7 7 7 8 8 7 7 8 7 6 6 6 6 6 6 6 6 5 5 5 5 4 3 4 4 4 4 5 4 5 5 7 8
4 4 4 4 4 5 4 3 3 4 4 4 4 3 3 4 4 5 4 5 3 3 4 4 5 5 5 5 5 5 5 4 4 4 2 4 4 4 4 6 7 5 5 5 5 6 5 5 5 5 5 5 5 5 5 6 6 6 7 6 6 6 7 6 5 4 6 5 5 5 5 5 5 5 5 5 4 5 5 4 5 5 5 6 5
5 6 6 5 5 5 5 5 4 3 3 3 3 3 2 2 2 4 5 4 4 3 3 3 3 4 4 4 4 4 4 4 3 3 4 6 6 7 7 6 6 7 7 8 8 8 8 8 8 9 8 8 7 7 6 6 5 6 5 6 6 6 6 7 6 6 6 5 6 6 5 5 5 5 6 6 5 4 5 5 5 5 5 6 7
7 7 7 6 6 6 6 6 5 5 4 4 4 2 3 3 4 3 3 3 3 3 3 4 3 4 4 4 4 4 4 4 4 5 6 5 4 5 5 6 6 5 5 5 5 6 7 8 7 8 8 8 9 8 8 8 8 7 7 7 6 6 6 6 7 6 6 6 7 7 7 6 6 5 6 5 6 5 5 5 6 6 6 6 6
8 8 8 7 6 5 5 4 5 4 3 4 4 4 4 3 4 4 5 4 4 3 4 4 4 3 4 4 3 4 4 4 5 5 6 5 5 5 4 4 4 5 4 6 6 6 6 6 6 7 7 7 7 8 6 6 6 7 7 6 7 7 8 8 7 9 6 6 7 8 9 7 6 7 6 6 6 6 6 6 6 6 7 6 6
7 7 6 6 6 5 5 4 4 4 4 4 4 4 4 4 3 3 4 4 4 3 3 3 2 3 5 4 4 3 3 4 4 4 5 5 5 5 4 4 5 5 5 6 6 6 5 6 6 7 7 7 7 6 7 6 7 8 7 6 7 8 8 9 8 9 8 7 8 9 10 8 7 8 8 6 6 6 6 7 7 6 7 7 6
7 7 7 6 6 6 6 7 6 6 5 5 4 4 4 3 1 2 4 3 2 1 1 2 3 4 3 3 3 4 3 4 5 5 5 6 5 5 5 6 6 6 6 5 6 6 6 6 6 6 7 7 7 7 7 7 8 8 9 8 7 7 8 9 10 10 10 8 9 10 10 9 7 9 9 7 6 6 6 7 9 7 8 8 7
4 5 5 6 6 5 5 5 5 4 4 4 4 2 1 1 2 2 2 0 0 0 1 3 4 4 3 4 5 3 5 5 5 4 6 5 6 6 5 6 5 5 6 5 5 5 4 5 5 6 6 6 7 7 7 6 7 8 8 9 9 9 8 8 9 10 10 9 9 11 10 9 8 10 10 9 7 7 7 7 8 8 7 9 8
6 8 8 7 6 7 7 6 5 5 4 4 4 4 1 1 1 2 1 1 0 1 2 3 3 4 4 5 5 4 6 6 5 5 6 5 5 5 5 5 5 5 5 5 5 4 5 5 6 6 7 6 7 7 7 7 7 7 7 8 9 8 9 10 10 10 9 10 10 10 11 10 9 11 10 8 8 9 9 8 9 9 8 8 7
7 6 6 10 9 6 5 6 5 5 6 5 4 3 3 3 1 1 1 0 1 2 3 3 3 4 4 5 4 5 5 5 5 5 5 5 6 5 5 5 5 6 6 5 6 6 6 6 6 6 6 6 6 7 7 7 8 7 7 8 9 9 9 10 11 11 10 9 9 11 11 10 10 11 12 11 9 10 10 10 10 10 9 8 9
8 9 7 4 4 9 8 6 6 6 5 4 5 4 4 4 2 1 1 2 2 3 3 4 4 5 4 4 5 5 5 5 5 5 5 5 5 5 6 6 6 6 6 6 6 6 6 5 6 5 6 7 7 6 7 7 7 7 9 10 10 10 10 9 9 10 10 10 10 10 10 11 11 11 12 12 11 11 10 11 10 10 9 9 10
3 4 7 10 10 7 7 8 7 5 4 4 4 5 5 5 4 2 2 3 3 4 4 5 5 5 5 4 4 5 5 4 4 5 5 5 5 5 5 5 5 6 5 6 7 7 6 5 6 6 6 6 6 7 6 6 7 8 9 10 10 10 11 10 10 10 10 10 10 10 10 10 11 11 12 12 11 11 11 12 10 9 9 10 10
5 8 8 9 8 8 8 7 7 5 6 6 4 3 3 3 3 3 3 3 3 6 5 5 5 5 4 3 4 4 3 3 4 4 4 5 5 5 5 4 4 4 5 5 6 7 6 7 6 7 7 6 6 6 6 7 9 10 9 10 10 10 10 12 11 11 10 11 11 10 10 10 13 19 24 21 20 18 14 13 12 10 10 10 10
7 8 10 8 8 7 8 7 6 7 7 6 5 5 5 6 4 3 4 3 5 5 5 5 5 4 3 3 4 3 3 3 4 4 4 4 4 4 4 4 5 4 4 5 6 5 5 7 7 7 6 6 6 5 9 17 15 11 12 10 10 10 10 10 10 12 11 10 10 11 12 21 24 23 23 24 24 24 24 19 15 13 12 12 11
7 7 7 7 7 7 6 7 8 8 8 8 6 6 5 4 4 4 4 3 4 5 4 5 5 3 3 3 3 3 3 3 4 4 3 3 5 4 3 4 4 4 6 6 6 6 6 6 7 7 8 6 5 6 16 17 18 19 14 12 12 13 12 12 12 13 13 13 11 11 11 13 15 16 14 19 21 23 23 24 26 25 21 16 14
8 8 6 7 8 8 8 9 8 7 7 7 7 7 6 6 5 5 4 3 4 4 5 5 4 3 3 4 3 4 4 4 3 3 3 3 3 3 3 4 4 4 4 3 5 5 6 6 6 7 7 7 7 11 17 18 19 19 17 13 12 11 11 11 12 12 12 13 14 13 12 11 11 14 15 15 18 22 23 24 25 25 24 26 24
9 8 8 9 10 10 10 7 5 7 8 7 8 9 8 7 7 5 5 4 4 5 5 5 3 3 3 4 4 3 2 2 2 2 3 3 3 4 4 4 5 4 4 4 6 7 6 6 7 8 8 7 7 13 17 19 19 20 20 17 11 11 11 11 11 12 13 13 13 13 12 11 10 18 14 12 13 14 19 23 23 24 24 24 24
7 8 9 9 6 5 6 6 6 5 5 6 6 7 7 6 6 5 5 4 5 4 5 4 3 3 3 3 3 2 2 2 2 2 3 3 3 4 4 4 4 4 4 5 4 6 5 7 7 8 8 8 8 13 19 20 20 21 20 18 11 10 10 11 11 11 11 12 12 12 12 12 12 12 12 13 13 14 14 13 13 13 13 17 21
8 7 7 7 7 5 4 4 5 6 6 8 6 7 8 6 6 6 4 6 4 5 4 4 3 3 3 3 4 2 3 2 2 3 3 3 3 4 4 4 4 5 6 6 6 6 6 6 7 7 9 9 7 17 19 20 20 21 21 18 9 10 9 10 11 11 12 12 13 12 13 14 13 13 12 15 15 14 14 12 12 11 11 11 12
9 11 10 8 8 10 11 9 5 7 6 6 8 7 8 6 5 6 5 4 5 4 4 2 3 3 3 3 2 2 2 2 3 3 3 4 3 4 5 5 4 4 3 4 4 4 7 8 7 8 9 10 9 17 20 20 21 20 22 11 9 10 10 10 10 11 12 11 12 12 13 13 13 14 18 24 21 17 14 14 15 14 14 13 13
9 9 10 9 8 7 6 6 7 7 8 7 7 7 7 7 6 4 4 4 4 3 3 3 3 3 2 2 1 1 1 2 3 4 3 4 4 5 4 3 5 5 5 5 5 5 6 7 8 7 9 10 9 14 20 20 21 22 17 7 9 9 10 11 11 12 11 11 11 12 13 14 15 15 20 26 25 24 15 15 14 13 10 9 9
5 3 2 3 4 4 4 8 9 7 6 6 7 7 8 7 5 5 4 5 4 4 3 3 3 2 1 1 1 0 1 2 3 3 4 3 3 3 3 3 5 7 7 5 6 7 6 6 8 9 8 10 10 14 20 21 21 21 18 10 6 7 9 11 11 11 11 11 12 22 21 17 15 15 23 26 26 20 13 12 11 13 14 13 12
6 8 8 7 7 7 7 6 7 9 7 7 7 8 8 6 5 5 4 4 4 4 4 3 3 2 1 0 0 0 1 2 3 3 3 4 4 4 4 3 4 4 6 6 6 7 7 6 6 8 12 13 11 12 18 19 21 20 16 9 7 7 8 10 10 11 11 12 12 15 23 22 20 21 27 24 25 20 13 12 12 13 14 14 12
4 3 4 5 7 9 6 8 10 11 8 9 7 7 6 6 6 5 4 4 5 5 4 4 2 1 0 0 0 1 1 2 3 3 3 4 4 3 4 4 5 4 6 6 6 7 9 8 7 8 8 8 11 10 11 20 19 20 20 12 8 8 9 11 10 10 11 10 10 9 13 21 26 26 25 27 25 26 17 13 12 12 12 14 11
6 6 7 8 9 11 14 15 11 9 9 7 7 7 6 5 6 5 5 4 4 5 4 3 2 1 0 0 1 1 3 3 3 4 3 3 3 4 4 4 6 5 5 7 7 8 8 9 7 7 8 9 8 11 11 19 20 21 21 18 8 9 9 10 10 12 10 9 8 9 9 19 26 27 27 27 27 26 25 17 13 12 12 16 19
2 6 6 6 7 6 4 4 5 9 8 7 7 7 5 5 5 5 4 4 5 5 4 2 1 0 0 1 2 3 3 3 3 3 3 4 3 3 4 5 5 5 7 8 7 7 8 9 7 7 7 9 10 14 11 16 20 21 21 23 12 10 12 12 12 9 9 10 12 10 9 19 29 29 29 29 30 28 29 17 14 22 26 27 19
5 4 6 8 8 9 9 8 6 7 8 7 8 7 6 5 6 5 4 5 5 4 3 2 1 1 1 2 3 3 4 3 3 3 4 5 4 4 4 4 5 6 6 8 7 7 8 9 9 7 6 8 9 9 16 14 19 22 23 21 23 18 23 15 12 12 12 11 10 12 14 26 30 30 29 30 29 30 23 15 25 27 26 28 23
5 4 7 8 8 6 6 6 7 7 7 7 9 9 7 7 8 4 5 4 4 3 3 1 1 1 2 3 3 4 4 3 4 4 4 4 5 4 4 5 5 5 6 7 6 6 7 8 10 10 7 7 8 8 11 17 17 22 22 23 23 24 25 16 13 11 9 10 11 13 16 29 30 30 30 28 26 23 17 24 25 26 26 23 13
9 7 5 6 10 9 8 6 6 7 6 7 6 10 8 8 4 6 5 6 5 4 3 2 3 3 3 4 3 4 4 4 4 4 4 4 4 3 5 4 4 5 5 7 7 5 7 8 8 10 10 8 8 8 8 11 20 22 23 23 24 26 26 26 18 12 12 12 18 29 32 30 29 30 30 28 21 20 24 24 25 26 24 11 9
3 3 7 8 4 5 8 9 6 6 7 6 6 8 10 6 5 6 6 6 5 4 4 4 4 3 4 3 4 4 4 4 4 4 4 4 4 4 5 6 5 6 5 6 7 6 6 7 8 9 9 9 9 9 9 9 10 13 16 22 27 27 26 25 24 19 25 30 29 29 32 30 26 22 15 10 8 10 20 25 26 23 12 10 10
9 8 7 7 7 8 10 11 12 10 9 7 7 4 5 6 8 7 6 5 5 5 4 4 4 4 3 3 4 4 4 4 3 4 4 4 4 4 4 6 6 6 6 6 6 6 7 7 7 9 10 10 10 9 8 8 9 11 11 12 13 12 18 20 14 12 15 14 18 18 14 19 17 22 21 19 18 18 14 12 10 9 9 9 9
6 5 8 7 9 12 12 12 13 12 9 8 7 7 7 7 6 7 6 6 6 7 6 5 6 4 4 4 4 5 5 4 4 4 5 5 4 4 5 6 7 6 6 6 6 7 7 7 7 9 9 9 8 7 8 9 10 10 10 10 11 11 10 10 11 11 12 13 12 13 14 8 6 6 7 6 6 7 9 9 9 8 9 10 12
6 7 10 13 12 13 13 14 12 8 9 8 8 7 7 8 8 7 8 7 8 7 5 4 4 3 5 3 4 4 4 4 5 4 5 5 5 5 6 8 8 7 8 8 8 8 10 11 9 7 6 7 8 9 9 14 16 19 17 14 11 11 11 10 15 24 17 12 10 10 9 10 9 9 8 7 6 7 7 8 10 9 9 9 8
7 7 9 9 9 12 11 11 6 8 9 8 7 7 6 7 6 7 8 8 7 5 5 5 4 4 4 3 4 4 3 4 4 5 5 5 8 12 9 7 7 12 17 18 15 9 9 8 6 6 5 7 7 9 19 23 22 23 24 24 23 23 22 19 21 25 16 9 8 8 8 8 9 8 9 9 9 9 9 9 9 11 10 8 9
6 7 7 10 10 9 7 8 9 9 10 9 8 7 6 6 7 6 8 9 8 6 5 5 4 5 5 4 4 4 4 4 4 4 4 5 6 7 11 14 14 14 14 16 16 18 19 17 9 6 8 17 19 20 20 20 22 21 22 23 23 23 23 22 21 14 9 8 8 8 9 9 9 8 8 9 10 11 11 12 11 11 10 10 11
Wind_Direction
343 357 8 12 15 13 6 9 12 29 28 25 32 29 28 26 32 31 14 23 34 32 35 39 42 47 51 55 58 46 46 48 47 37 43 39 32 34 35 36 34 36 31 32 35 40 47 41 38 36 37 44 47 44 40 45 48 86 73 65 31 10 345 20 358 7 356 305 300 296 300 252 251 242 244 252 247 248 234 238 244 247 251 252 251
17 17 12 15 16 9 6 18 19 31 18 26 32 27 29 31 39 32 23 28 31 30 39 53 43 64 87 70 75 57 45 44 43 37 40 39 37 35 35 34 34 33 28 34 38 36 39 37 33 30 26 30 45 53 53 60 51 49 41 35 41 66 342 9 352 346 358 341 333 329 330 312 291 258 258 257 257 257 243 245 252 240 255 250 266
21 18 14 17 14 9 15 20 25 26 23 30 25 32 30 33 32 34 31 32 29 26 37 48 49 49 69 67 71 79 61 68 65 51 46 46 42 37 36 38 36 37 29 29 36 30 34 41 40 38 39 32 38 37 37 40 41 51 47 45 4 23 211 360 56 70 287 336 260 322 326 353 333 342 317 290 268 250 232 246 259 276 263 275 274
31 16 16 13 17 9 20 24 14 20 29 29 26 33 32 32 30 32 33 33 30 25 31 35 59 72 70 80 73 70 67 57 64 49 39 38 35 31 34 31 31 33 28 30 36 34 29 31 29 33 34 31 38 38 31 27 19 29 40 63 95 345 15 20 68 98 112 20 334 22 282 29 318 341 331 295 314 282 262 255 258 253 260 280 312
28 21 19 20 21 21 22 14 8 33 32 30 25 29 36 33 31 37 39 37 37 32 32 33 57 53 57 77 78 76 47 39 39 33 32 36 38 32 26 26 31 36 33 33 33 33 33 33 35 34 36 30 37 45 42 36 33 30 24 26 32 25 353 25 4 117 182 131 127 341 335 345 243 292 332 295 345 2 306 276 274 274 284 284 258
43 25 15 18 21 23 26 18 28 30 32 20 19 29 35 36 37 40 44 40 34 32 35 55 58 62 56 50 45 46 46 33 34 25 25 32 36 32 36 31 32 38 35 33 33 31 32 29 32 33 32 29 30 38 35 30 28 28 17 21 17 17 360 1 345 360 203 203 183 195 181 254 310 316 349 303 335 234 292 319 274 263 256 259 251
27 33 23 32 21 36 25 23 16 33 20 4 24 34 38 43 43 47 49 45 35 35 36 59 65 64 70 74 74 69 76 55 48 44 52 45 52 46 41 36 35 38 36 35 34 33 34 31 30 32 32 29 25 34 32 26 21 24 13 28 24 13 21 20 2 336 339 244 211 220 198 205 185 291 282 316 310 314 68 328 307 280 255 247 257
27 38 32 28 42 39 29 2 14 15 357 14 37 34 43 42 49 51 50 50 39 38 50 49 77 77 79 78 74 70 71 78 52 53 51 54 56 45 42 40 39 39 37 36 35 36 37 36 33 34 35 28 29 32 28 14 20 23 27 26 30 29 23 28 348 349 18 328 13 320 247 238 222 237 240 246 273 299 298 280 257 281 290 269 257
41 58 33 20 31 26 4 23 354 10 15 33 34 36 39 46 56 58 54 49 39 43 56 53 67 76 82 87 82 71 79 75 73 57 56 46 59 43 45 39 38 37 36 34 33 34 36 36 35 38 38 31 30 30 25 23 25 22 19 22 24 28 28 9 18 2 360 344 340 334 346 298 263 222 231 200 251 290 292 302 302 309 292 256 261
23 40 27 15 9 9 340 340 24 20 14 30 38 44 47 51 59 62 52 48 40 50 58 61 61 70 75 75 85 80 73 73 67 60 54 43 57 47 44 43 36 36 32 32 31 27 29 29 32 33 32 29 32 30 27 27 23 26 25 26 25 31 21 23 21 358 358 342 345 322 335 328 327 326 158 254 263 218 271 298 300 304 301 279 230
54 31 13 1 338 1 357 50 30 24 23 43 50 51 53 60 63 65 50 50 46 51 59 63 62 63 75 75 79 83 73 74 67 55 50 48 51 45 43 42 41 41 36 36 36 29 29 29 30 27 27 26 25 23 22 19 16 21 21 31 35 34 21 18 18 19 8 360 356 358 342 330 307 292 293 294 282 293 297 294 304 295 290 301 258
16 51 59 30 45 32 33 55 41 34 43 54 55 53 58 60 69 76 55 51 50 53 65 65 68 68 73 76 76 71 71 67 64 59 44 51 48 47 36 43 36 37 37 35 31 25 28 28 29 30 29 24 25 20 19 15 8 12 17 22 23 24 25 28 27 18 9 3 2 355 343 330 316 297 294 292 291 284 280 288 293 306 291 261 284
192 177 170 95 101 80 78 69 64 52 65 60 56 62 64 66 70 82 63 50 54 57 70 68 71 68 72 75 75 71 68 68 66 64 43 51 47 47 40 40 29 34 27 29 20 19 22 22 22 23 22 23 21 21 16 15 10 13 14 13 14 17 10 8 17 10 1 16 333 332 329 329 310 311 311 298 296 290 287 290 282 282 290 299 275
205 204 204 201 180 150 157 116 104 96 76 71 68 72 72 75 72 82 76 53 60 65 68 74 67 67 68 75 73 75 72 71 66 67 54 57 52 54 48 40 40 36 26 26 9 13 22 20 20 22 22 18 20 20 18 14 10 10 9 12 7 2 359 0 357 351 348 344 314 324 331 308 300 307 307 312 296 307 296 285 301 292 283 291 298
214 208 208 196 206 200 161 155 141 110 97 84 82 80 83 80 77 88 83 56 65 69 70 74 71 67 68 71 76 74 77 75 71 68 64 66 53 63 54 46 51 33 32 11 10 18 15 15 14 15 12 12 12 14 12 10 9 4 10 4 0 357 356 352 348 352 347 343 343 342 318 301 274 288 303 294 295 285 277 287 301 307 301 280 294
204 207 217 233 226 220 206 182 158 127 120 109 97 103 98 96 91 89 94 85 73 75 73 84 84 82 72 73 73 77 82 82 74 67 64 73 70 72 64 61 56 44 19 24 9 24 17 14 11 11 5 7 8 8 7 8 3 4 1 3 1 354 354 348 342 343 339 335 329 321 321 309 310 292 273 270 273 271 277 282 284 274 286 303 309
204 202 202 213 220 225 207 194 170 160 136 137 141 137 128 122 114 102 98 91 85 90 92 83 83 78 68 73 73 75 77 80 86 83 84 76 87 78 76 67 61 50 22 27 17 16 20 19 15 9 8 5 6 4 4 3 0 360 359 355 356 351 349 342 336 337 329 327 327 325 312 301 302 304 290 269 266 266 259 257 248 251 264 275 303
197 202 206 207 206 201 206 208 191 175 168 160 159 171 156 147 136 129 129 112 115 102 88 89 91 88 90 87 86 95 99 100 102 100 93 72 48 47 40 32 26 14 16 9 10 9 12 11 13 8 6 8 8 0 3 360 359 358 351 349 342 343 341 337 337 330 325 320 310 312 314 309 304 306 294 290 278 269 266 253 247 245 225 244 259
204 205 205 209 203 203 195 191 199 198 194 183 172 167 151 139 147 140 132 135 127 113 106 87 94 103 101 91 90 83 80 82 76 66 52 45 34 30 30 21 12 13 11 7 6 4 4 2 4 1 1 4 4 2 360 357 358 351 345 341 335 343 338 330 327 332 322 323 317 313 307 299 302 302 299 298 287 271 264 258 257 242 239 229 243
197 199 201 198 204 201 190 183 186 194 191 194 178 156 154 162 135 120 104 109 101 109 121 94 73 86 70 62 52 63 61 73 56 52 44 40 32 28 23 18 9 8 10 2 6 3 359 359 357 357 356 357 357 357 356 353 350 350 340 338 331 332 328 322 317 320 318 319 316 313 309 307 306 300 295 290 290 284 269 263 254 249 248 238 236
197 194 194 197 200 200 200 196 195 194 189 175 174 172 173 167 161 171 144 142 105 90 71 65 67 73 81 72 62 54 49 52 54 46 50 36 28 27 20 2 1 9 3 360 3 359 358 356 353 354 354 349 349 346 348 346 344 337 336 328 326 330 325 319 316 313 314 314 312 307 307 305 305 300 291 288 288 286 287 272 258 252 254 245 235
194 189 187 192 195 197 201 201 200 181 188 181 188 169 169 166 152 136 112 95 102 80 90 124 121 92 64 51 43 46 42 42 64 45 47 38 24 22 12 5 18 358 8 360 359 353 354 353 356 350 349 346 342 342 339 344 338 333 329 329 327 325 320 315 316 311 315 316 309 307 302 304 307 297 296 291 280 283 283 286 278 261 256 258 232
185 182 189 188 188 190 190 191 192 192 188 180 175 170 151 131 113 50 73 43 56 96 115 105 86 82 77 75 65 44 46 43 50 35 34 26 19 13 12 15 6 358 358 358 350 350 349 350 351 347 344 341 340 337 341 339 334 331 325 323 320 315 310 310 311 307 309 310 306 302 300 305 305 299 296 293 292 284 278 273 278 271 269 266 257
177 188 186 185 188 191 188 197 199 200 195 198 196 176 179 73 41 66 82 282 288 153 116 80 71 64 60 68 54 41 54 45 47 32 34 22 21 16 9 12 360 354 350 342 342 342 348 346 344 340 339 336 334 333 334 332 325 323 318 314 316 314 309 304 300 302 305 305 300 300 298 302 301 296 295 297 295 288 286 282 277 276 265 271 267
188 192 188 182 189 192 198 196 196 199 203 201 190 199 120 94 140 143 192 222 288 13 74 70 70 73 52 61 49 47 49 40 38 32 27 24 22 17 10 2 356 353 348 343 345 353 349 350 351 341 336 337 333 332 329 325 320 314 309 307 307 305 304 302 299 299 299 300 299 294 297 302 301 295 293 292 293 290 287 284 282 281 277 272 272
196 186 173 193 195 191 193 198 200 202 195 195 190 149 143 160 165 202 193 218 37 69 85 92 83 80 60 57 47 44 42 39 33 28 27 26 21 13 5 2 359 350 349 354 353 353 351 348 345 337 334 335 337 332 326 320 316 316 313 310 306 302 300 300 299 297 296 295 295 296 298 300 297 294 295 296 292 287 286 281 280 280 279 278 277
197 193 191 164 184 202 198 196 201 200 197 186 169 168 161 157 145 118 103 107 96 98 94 93 84 84 75 57 49 45 42 36 31 29 27 21 16 5 5 360 354 351 349 351 350 348 346 343 332 340 340 338 333 330 325 317 319 319 312 305 304 301 298 297 295 295 297 296 294 293 293 294 293 292 292 293 295 288 284 280 276 279 276 276 277
188 184 179 193 202 193 193 203 201 199 179 175 175 171 168 162 146 110 92 97 102 104 98 93 91 82 74 62 50 50 44 35 36 31 28 19 7 3 1 353 350 352 354 347 348 344 338 338 337 343 337 335 329 326 320 321 314 309 307 303 303 302 300 296 294 293 291 289 290 289 286 286 286 284 284 285 283 285 285 281 277 273 274 274 273
201 208 201 200 196 194 199 202 197 175 179 178 162 146 120 101 107 112 107 100 112 104 97 95 88 88 82 70 65 57 49 44 43 32 26 11 2 359 351 346 351 352 348 342 346 339 336 341 342 338 339 335 329 324 329 319 315 311 307 303 302 300 300 299 297 297 297 298 296 293 289 285 287 289 289 289 287 286 286 288 287 286 284 277 275
203 210 208 202 197 194 200 196 187 185 184 177 168 161 157 144 138 127 112 97 95 98 107 99 97 100 92 85 82 66 53 50 41 29 18 0 355 355 348 350 356 347 341 345 340 339 348 340 337 333 336 330 323 322 311 312 314 312 311 308 304 300 297 297 297 298 293 289 286 289 292 295 295 293 291 289 288 286 284 282 285 287 287 284 279
234 224 210 197 197 202 197 195 195 191 187 178 172 159 146 137 139 133 122 109 104 112 105 113 114 108 100 93 86 68 59 49 35 24 6 3 357 352 352 351 350 347 346 347 338 342 346 335 333 329 325 323 314 307 309 312 313 313 312 308 306 305 305 305 305 307 308 310 310 306 304 306 307 306 304 301 298 295 292 290 287 284 281 279 283
228 219 196 193 200 201 202 204 199 191 182 170 159 158 151 152 146 139 129 120 118 119 118 113 111 103 95 83 73 58 45 33 24 11 2 356 348 346 350 348 342 345 342 334 334 339 332 332 325 321 314 312 306 303 309 309 311 310 310 307 306 304 305 305 306 307 307 309 308 309 310 310 308 304 301 299 296 294 292 289 286 283 281 280 277
220 204 200 202 202 204 203 200 191 182 180 184 160 153 163 154 146 141 122 120 119 120 117 109 106 102 91 81 67 57 45 33 21 2 350 344 348 343 348 347 347 338 327 338 336 333 329 327 320 315 312 305 295 304 308 310 312 312 311 310 304 305 305 307 308 308 306 305 304 303 303 299 298 301 301 299 298 296 295 294 293 292 288 285 283
216 205 203 208 205 204 200 193 184 175 166 151 154 148 141 135 129 125 127 129 123 118 116 121 119 114 100 86 69 55 37 16 7 357 355 351 353 350 340 332 330 332 335 329 329 325 320 317 316 313 308 306 298 304 311 314 314 312 312 312 310 313 310 306 304 302 300 299 300 302 303 303 301 300 297 297 293 285 281 276 275 274 275 279 281
203 206 214 209 201 187 167 164 162 151 142 136 128 131 129 124 130 126 131 128 127 128 128 140 133 107 89 71 52 38 18 359 353 357 356 350 345 334 338 336 336 330 329 326 325 321 315 312 310 308 305 303 298 309 314 315 313 313 313 317 319 313 304 300 299 298 299 299 300 300 299 299 300 300 299 298 299 301 301 299 295 290 284 280 277
205 201 208 193 189 186 186 181 146 143 148 151 146 141 132 134 130 132 136 135 135 128 134 134 110 88 72 59 48 28 359 347 344 350 352 340 337 331 331 326 322 313 298 302 300 300 306 308 306 304 303 301 302 312 314 313 312 314 316 319 313 305 304 301 300 299 299 298 298 298 300 298 296 295 294 295 294 294 292 287 283 278 276 274 272
210 198 203 198 190 182 169 141 153 157 155 155 144 137 131 131 131 139 135 142 133 137 149 130 112 99 80 74 43 24 339 339 344 343 336 329 328 324 322 317 314 308 310 308 302 303 302 302 302 301 301 300 300 311 312 312 314 314 316 298 309 309 301 301 298 300 299 298 296 294 293 294 293 291 291 294 294 294 288 283 281 284 289 293 293
204 191 196 161 154 127 140 156 155 157 155 143 144 142 138 138 148 150 145 150 147 164 151 132 123 114 104 95 41 19 333 332 331 321 314 307 307 299 300 311 309 311 309 303 305 301 294 293 295 296 296 297 298 306 310 312 313 312 313 311 295 291 294 298 298 296 297 291 283 283 284 281 280 284 289 291 293 295 289 288 289 288 286 281 278
194 183 182 177 172 161 149 139 148 162 166 154 149 145 143 154 159 162 159 162 177 166 158 145 137 121 126 115 88 4 324 312 304 299 302 303 305 300 298 297 286 290 292 300 300 298 295 290 283 286 294 296 293 299 304 308 309 310 312 304 297 291 294 299 298 292 281 274 262 267 275 282 287 289 292 295 295 294 287 279 276 273 274 271 271
204 219 188 152 132 122 141 159 181 187 157 158 153 150 154 158 167 156 166 188 187 166 147 125 127 125 124 119 22 324 304 298 293 298 296 286 289 299 297 302 297 289 294 298 295 292 293 292 289 288 288 286 290 290 294 303 306 308 310 308 297 297 290 288 280 277 282 273 261 255 269 282 289 290 291 294 295 295 291 284 278 275 272 275 271
200 194 148 152 170 172 180 190 187 158 156 158 152 147 164 164 159 163 198 193 157 137 129 131 121 121 170 193 306 293 288 285 274 278 283 288 286 291 301 298 298 298 292 294 293 290 289 289 288 283 285 285 280 288 288 299 304 306 308 312 296 288 278 273 277 275 267 265 270 269 255 283 290 292 294 293 292 292 290 282 279 277 272 274 280
134 151 159 163 173 186 166 140 145 153 157 156 154 157 161 160 161 199 198 144 140 134 126 122 133 170 206 298 289 287 270 265 278 283 287 282 272 278 286 291 289 294 295 291 292 292 291 291 289 284 282 283 284 284 289 294 300 304 308 311 309 291 293 288 288 285 290 288 284 281 274 287 291 291 291 290 288 289 287 287 280 282 287 293 298
150 164 194 168 172 190 193 171 147 154 157 162 152 158 164 164 188 208 154 143 134 132 127 136 149 221 263 280 282 275 279 279 281 274 276 283 287 295 290 289 290 291 288 291 291 293 296 296 296 289 281 282 284 282 290 293 300 307 311 313 310 307 304 305 297 287 281 281 283 282 280 287 288 288 287 286 285 288 295 298 299 301 300 299 298
226 210 183 179 189 178 165 153 159 162 165 165 162 161 170 178 208 150 143 132 130 124 125 133 196 249 272 279 269 273 271 272 272 276 277 281 291 289 285 280 279 283 289 292 290 292 296 298 303 303 295 285 282 281 285 296 303 309 314 314 311 308 306 299 294 285 285 279 280 279 278 282 283 285 288 292 298 307 304 301 300 298 296 298 295
204 207 179 185 193 182 164 159 171 172 172 170 172 163 170 193 190 147 151 148 142 131 141 194 226 243 253 252 269 266 270 268 265 259 272 280 287 282 290 275 276 282 278 284 287 287 289 294 296 297 301 297 291 287 288 291 307 313 314 312 309 307 306 307 304 294 285 283 289 294 297 299 302 304 306 307 308 302 296 296 295 297 302 306 301
191 173 174 186 160 147 162 175 184 186 179 179 180 166 173 198 152 153 146 148 145 149 173 214 227 232 240 251 271 279 270 264 265 258 251 256 263 274 273 283 276 272 266 270 281 284 282 282 284 292 294 299 299 298 298 296 294 295 302 301 301 300 301 301 300 298 299 296 294 292 294 298 299 296 294 285 271 282 294 300 300 302 303 297 289
209 207 149 158 166 170 185 186 193 195 186 182 173 175 160 141 155 149 146 145 153 169 190 210 227 231 242 238 243 268 279 276 265 258 255 257 254 253 258 270 268 270 269 263 271 276 279 271 264 287 294 300 298 296 302 304 306 301 293 288 292 290 294 297 295 281 281 281 281 281 280 287 299 305 308 307 305 303 301 295 293 290 285 281 280
211 170 171 169 181 193 196 193 202 193 181 171 171 171 155 147 149 150 148 152 170 181 194 210 219 215 231 229 239 253 257 268 268 263 273 277 258 239 247 256 260 257 260 267 264 268 266 266 271 286 282 285 296 309 308 307 300 298 306 309 302 299 305 308 308 312 310 310 314 313 314 322 311 303 298 290 286 289 289 295 293 294 290 286 283
183 191 176 189 194 199 202 198 204 170 171 173 177 168 162 158 153 155 155 167 174 179 196 210 217 214 238 234 232 241 245 255 269 262 250 242 261 265 261 261 250 233 234 247 261 256 263 271 256 250 273 298 312 308 303 307 313 319 318 316 322 326 326 322 320 318 318 320 316 320 327 328 334 324 318 305 301 298 297 292 289 284 281 284 284
204 176 193 200 201 200 199 198 182 162 176 177 177 172 169 167 160 160 160 170 178 185 193 218 212 216 236 235 242 245 242 248 253 268 276 279 255 262 260 252 256 266 263 254 245 238 248 267 281 293 305 304 300 297 308 317 318 319 325 328 328 328 330 328 325 327 331 328 337 331 326 326 322 324 321 322 320 320 316 313 304 308 304 295 289
177 169 195 203 204 196 185 185 181 169 179 179 175 173 170 172 162 164 164 172 164 183 201 215 212 226 225 230 232 247 251 251 254 259 269 282 301 294 290 284 279 279 281 282 285 286 291 293 296 307 308 306 306 310 315 317 320 329 334 333 334 338 339 337 340 347 356 348 338 335 329 326 324 324 326 329 329 326 324 320 315 313 307 305 304